• Em Portugal
  • Lista de países
  • Para 7 dias
  • Temperatura da água
  • Mapas de satélite
  • Mapa do tempo
  • Widgets de tempo
  • user-avatar
    Iniciar Sessão

    Previsão horária em Tarin Kout

    Hoje, 24 Novembro, Sexta-feira

    Tempo Temperatura Precipitação Vento Pressão Humidade
    00:00 +8°C° 0 mm 2 m/s 616 mmHg 13%
    01:00 +8°C° 0 mm 2 m/s 616 mmHg 13%
    02:00 +8°C° 0 mm 2 m/s 616 mmHg 13%
    03:00 +8°C° 0 mm 2 m/s 616 mmHg 13%
    04:00 +8°C° 0 mm 2 m/s 615 mmHg 13%
    05:00 +8°C° 0 mm 2 m/s 616 mmHg 14%
    06:00 +9°C° 0 mm 2 m/s 616 mmHg 14%
    07:00 +9°C° 0 mm 2 m/s 616 mmHg 14%
    08:00 +12°C° 0 mm 2 m/s 617 mmHg 13%
    09:00 +13°C° 0 mm 2 m/s 618 mmHg 12%
    10:00 +15°C° 0 mm 2 m/s 619 mmHg 10%
    11:00 +15°C° 0 mm 2 m/s 619 mmHg 12%
    12:00 +15°C° 0 mm 2 m/s 619 mmHg 13%
    13:00 +15°C° 0 mm 2 m/s 619 mmHg 14%
    14:00 +15°C° 0 mm 2 m/s 618 mmHg 16%
    15:00 +14°C° 0 mm 2 m/s 618 mmHg 17%
    16:00 +14°C° 0 mm 2 m/s 618 mmHg 18%
    17:00 +12°C° 0 mm 3 m/s 618 mmHg 20%
    18:00 +12°C° 0 mm 3 m/s 618 mmHg 21%
    19:00 +11°C° 0 mm 3 m/s 618 mmHg 22%
    20:00 +10°C° 0 mm 3 m/s 618 mmHg 23%
    21:00 +10°C° 0 mm 3 m/s 618 mmHg 24%
    22:00 +10°C° 0 mm 3 m/s 617 mmHg 25%
    23:00 +10°C° 0 mm 3 m/s 617 mmHg 25%

    Amanhã, 25 Novembro, Sábado

    Tempo Temperatura Precipitação Vento Pressão Humidade
    00:00 +9°C° 0 mm 3 m/s 617 mmHg 26%
    01:00 +9°C° 0 mm 3 m/s 617 mmHg 26%
    02:00 +9°C° 0 mm 3 m/s 616 mmHg 27%
    03:00 +9°C° 0 mm 2 m/s 616 mmHg 28%
    04:00 +9°C° 0 mm 2 m/s 616 mmHg 29%
    05:00 +9°C° 0,3 mm 2 m/s 616 mmHg 34%
    06:00 +9°C° 0,3 mm 2 m/s 617 mmHg 39%
    07:00 +8°C° 0,3 mm 2 m/s 617 mmHg 43%
    08:00 +10°C° 0,1 mm 2 m/s 617 mmHg 41%
    09:00 +12°C° 0,1 mm 2 m/s 618 mmHg 38%
    10:00 +13°C° 0,1 mm 2 m/s 619 mmHg 36%
    11:00 +13°C° 0 mm 2 m/s 619 mmHg 36%
    12:00 +14°C° 0 mm 2 m/s 618 mmHg 36%
    13:00 +15°C° 0 mm 2 m/s 618 mmHg 36%
    14:00 +15°C° 0 mm 2 m/s 618 mmHg 36%
    15:00 +15°C° 0 mm 2 m/s 618 mmHg 36%
    16:00 +14°C° 0 mm 2 m/s 618 mmHg 36%
    17:00 +13°C° 0 mm 2 m/s 619 mmHg 40%
    18:00 +12°C° 0 mm 1 m/s 619 mmHg 44%
    19:00 +11°C° 0 mm 1 m/s 619 mmHg 47%
    20:00 +10°C° 0 mm 1 m/s 619 mmHg 49%
    21:00 +10°C° 0 mm 1 m/s 619 mmHg 51%
    22:00 +9°C° 0 mm 1 m/s 619 mmHg 53%
    23:00 +9°C° 0 mm 1 m/s 619 mmHg 54%

    Depois de amanhã, 26 Novembro, Domingo

    Tempo Temperatura Precipitação Vento Pressão Humidade
    00:00 +8°C° 0 mm 1 m/s 618 mmHg 55%
    01:00 +8°C° 0 mm 1 m/s 618 mmHg 56%
    02:00 +7°C° 0 mm 1 m/s 618 mmHg 56%
    03:00 +7°C° 0 mm 1 m/s 618 mmHg 57%
    04:00 +6°C° 0 mm 1 m/s 618 mmHg 57%
    05:00 +7°C° 0 mm 1 m/s 618 mmHg 55%
    06:00 +7°C° 0 mm 1 m/s 619 mmHg 53%
    07:00 +7°C° 0 mm 1 m/s 619 mmHg 52%
    08:00 +9°C° 0 mm 1 m/s 620 mmHg 45%
    09:00 +10°C° 0 mm 1 m/s 621 mmHg 38%
    10:00 +11°C° 0 mm 0 m/s 622 mmHg 32%
    11:00 +13°C° 0 mm 1 m/s 622 mmHg 29%
    12:00 +14°C° 0 mm 1 m/s 621 mmHg 26%
    13:00 +14°C° 0 mm 2 m/s 621 mmHg 22%
    14:00 +14°C° 0 mm 2 m/s 621 mmHg 23%
    15:00 +14°C° 0 mm 2 m/s 621 mmHg 23%
    16:00 +13°C° 0 mm 2 m/s 620 mmHg 23%
    17:00 +12°C° 0 mm 2 m/s 620 mmHg 26%
    18:00 +11°C° 0 mm 1 m/s 620 mmHg 29%
    19:00 +9°C° 0 mm 1 m/s 620 mmHg 32%
    20:00 +9°C° 0 mm 1 m/s 620 mmHg 32%
    21:00 +8°C° 0 mm 1 m/s 619 mmHg 32%
    22:00 +7°C° 0 mm 1 m/s 619 mmHg 31%
    23:00 +7°C° 0 mm 1 m/s 619 mmHg 30%

    27 Novembro, Segunda-feira

    Tempo Temperatura Precipitação Vento Pressão Humidade
    00:00 +6°C° 0 mm 1 m/s 618 mmHg 29%
    01:00 +6°C° 0 mm 1 m/s 618 mmHg 29%
    02:00 +5°C° 0 mm 1 m/s 617 mmHg 28%
    03:00 +4°C° 0 mm 0 m/s 617 mmHg 27%
    04:00 +4°C° 0 mm 0 m/s 617 mmHg 27%
    05:00 +4°C° 0 mm 0 m/s 617 mmHg 26%
    06:00 +4°C° 0 mm 0 m/s 617 mmHg 25%
    07:00 +4°C° 0 mm 0 m/s 618 mmHg 24%
    08:00 +7°C° 0 mm 1 m/s 619 mmHg 20%
    09:00 +9°C° 0 mm 1 m/s 620 mmHg 17%
    10:00 +11°C° 0 mm 1 m/s 621 mmHg 13%
    11:00 +12°C° 0 mm 1 m/s 620 mmHg 13%
    12:00 +13°C° 0 mm 2 m/s 620 mmHg 12%
    13:00 +13°C° 0 mm 2 m/s 620 mmHg 11%
    14:00 +13°C° 0 mm 2 m/s 619 mmHg 11%
    15:00 +13°C° 0 mm 2 m/s 619 mmHg 12%
    16:00 +12°C° 0 mm 2 m/s 619 mmHg 12%
    17:00 +11°C° 0 mm 1 m/s 618 mmHg 14%
    18:00 +10°C° 0 mm 1 m/s 618 mmHg 15%
    19:00 +8°C° 0 mm 1 m/s 618 mmHg 17%
    20:00 +8°C° 0 mm 1 m/s 617 mmHg 18%
    21:00 +7°C° 0 mm 1 m/s 617 mmHg 18%
    22:00 +6°C° 0 mm 0 m/s 617 mmHg 18%
    23:00 +5°C° 0 mm 0 m/s 616 mmHg 19%

    28 Novembro, Terça-feira

    Tempo Temperatura Precipitação Vento Pressão Humidade
    00:00 +5°C° 0 mm 0 m/s 616 mmHg 19%
    01:00 +5°C° 0 mm 0 m/s 615 mmHg 19%
    02:00 +6°C° 0 mm 1 m/s 615 mmHg 19%
    03:00 +5°C° 0 mm 1 m/s 615 mmHg 19%
    04:00 +5°C° 0 mm 1 m/s 615 mmHg 20%
    05:00 +6°C° 0 mm 1 m/s 615 mmHg 19%
    06:00 +6°C° 0 mm 1 m/s 616 mmHg 19%
    07:00 +5°C° 0 mm 0 m/s 616 mmHg 19%
    08:00 +7°C° 0 mm 0 m/s 617 mmHg 17%
    09:00 +9°C° 0 mm 0 m/s 618 mmHg 15%
    10:00 +11°C° 0 mm 0 m/s 618 mmHg 13%
    11:00 +12°C° 0 mm 1 m/s 618 mmHg 14%
    12:00 +13°C° 0 mm 1 m/s 618 mmHg 15%
    13:00 +13°C° 0 mm 1 m/s 617 mmHg 16%
    14:00 +13°C° 0 mm 1 m/s 617 mmHg 17%
    15:00 +13°C° 0 mm 1 m/s 617 mmHg 18%
    16:00 +12°C° 0 mm 1 m/s 617 mmHg 19%
    17:00 +11°C° 0 mm 1 m/s 617 mmHg 22%
    18:00 +10°C° 0 mm 1 m/s 616 mmHg 24%
    19:00 +8°C° 0 mm 1 m/s 616 mmHg 27%
    20:00 +8°C° 0 mm 1 m/s 616 mmHg 28%
    21:00 +7°C° 0 mm 1 m/s 616 mmHg 29%
    22:00 +7°C° 0 mm 1 m/s 616 mmHg 31%
    23:00 +7°C° 0 mm 1 m/s 616 mmHg 32%

    29 Novembro, Quarta-feira

    Tempo Temperatura Precipitação Vento Pressão Humidade
    00:00 +6°C° 0 mm 1 m/s 616 mmHg 33%
    01:00 +6°C° 0 mm 1 m/s 616 mmHg 34%
    02:00 +6°C° 0 mm 1 m/s 616 mmHg 36%
    03:00 +6°C° 0 mm 1 m/s 616 mmHg 37%
    04:00 +5°C° 0 mm 1 m/s 615 mmHg 38%
    05:00 +5°C° 0 mm 1 m/s 616 mmHg 39%
    06:00 +5°C° 0 mm 1 m/s 616 mmHg 39%
    07:00 +6°C° 0 mm 1 m/s 617 mmHg 39%
    08:00 +8°C° 0 mm 1 m/s 618 mmHg 34%
    09:00 +10°C° 0 mm 1 m/s 619 mmHg 29%
    10:00 +11°C° 0 mm 0 m/s 620 mmHg 24%
    11:00 +13°C° 0 mm 1 m/s 620 mmHg 22%
    12:00 +13°C° 0 mm 1 m/s 619 mmHg 21%
    13:00 +14°C° 0 mm 2 m/s 619 mmHg 19%
    14:00 +14°C° 0 mm 1 m/s 619 mmHg 19%
    15:00 +13°C° 0 mm 1 m/s 619 mmHg 20%
    16:00 +13°C° 0 mm 1 m/s 619 mmHg 20%
    17:00 +12°C° 0 mm 1 m/s 619 mmHg 22%
    18:00 +10°C° 0 mm 1 m/s 618 mmHg 24%
    19:00 +9°C° 0 mm 1 m/s 618 mmHg 26%
    20:00 +8°C° 0 mm 1 m/s 618 mmHg 27%
    21:00 +8°C° 0 mm 1 m/s 618 mmHg 28%
    22:00 +6°C° 0 mm 0 m/s 618 mmHg 29%
    23:00 +7°C° 0 mm 1 m/s 618 mmHg 30%
    Mostrar mais